387  
NZUS99 KIND 202009  
HRRIND  
 
WEATHER ROUNDUP FOR INDIANA AND SURROUNDING STATES  
NATIONAL WEATHER SERVICE INDIANAPOLIS IN  
400 PM EDT THU JUL 20 2017  
   
..INDIANA
 
 
 
CITY SKY/WX TMP DP RH WIND PRES REMARKS  
INDIANAPOLIS PTSUNNY 88 74 63 SW13 30.00F HX 96  
EAGLE CREEK MOSUNNY 87 72 60 VRB6 30.00F HX 93  
ZIONSVILLE MOSUNNY 86 74 68 SW10 30.01F HX 94  
FISHERS CLOUDY 88 77 70 SW7 30.00 HX 100  
ANDERSON SUNNY 88 70 55 MISG 30.01F HX 92  
MOUNT COMFORT PTSUNNY 88 73 62 SW14 30.01F HX 96  
GREENWOOD MOSUNNY 87 71 60 SW9 30.02F HX 92  
SHELBYVILLE PTSUNNY 88 74 63 SW14 30.00F HX 96  

 
 
CITY SKY/WX TMP DP RH WIND PRES REMARKS  
LAFAYETTE CLOUDY 86 76 71 SW13 29.97F HX 96  
KOKOMO MOSUNNY 88 74 63 W17G23 29.99S HX 96  
FRANKFORT MOSUNNY 88 76 68 SW8 30.01F HX 99  
MUNCIE MOSUNNY 88 70 55 W10 30.00F HX 93  
GREENCASTLE MOSUNNY 84 75 74 CALM 30.02F HX 92  
TERRE HAUTE PTSUNNY 91 77 63 SW9 30.00F HX 104  
BLOOMINGTON PTSUNNY 90 72 55 W9 30.03F HX 97  
CAMP ATTERBURY MOSUNNY 88 73 62 SW8 30.02F HX 96  
COLUMBUS SUNNY 90 72 55 SW9 30.02F HX 96  
BEDFORD CLOUDY 91 68 46 SW8 30.03F HX 95  
NORTH VERNON MOSUNNY 86 72 62 SW12 30.04F HX 92  

 
 
CITY SKY/WX TMP DP RH WIND PRES REMARKS  
GARY MOSUNNY 90 73 58 W12G28 29.95S HX 98  
VALPARAISO MOSUNNY 90 76 63 W14 29.96S HX 101  
LA PORTE MOSUNNY 87 74 66 W8 29.97R HX 95  
MICHIGAN CITY SUNNY 86 73 66 NW6G17 29.97R HX 93  
SOUTH BEND MOSUNNY 87 74 64 W12 29.97S HX 95  
ELKHART MOSUNNY 86 72 62 W12 29.98S HX 92  
ANGOLA CLOUDY 84 79 84 VRB3 29.99F HX 96  
KENDALLVILLE MOSUNNY N/A N/A N/A W7 30.00F  
AUBURN MOSUNNY 82 68 61 CALM 30.00S  
RENSSELAER MOSUNNY 88 73 62 SW16 29.96S HX 96  
KNOX SUNNY 86 64 48 W8 29.95S  
ROCHESTER MOSUNNY 90 73 58 W9G16 29.98S HX 98  
WARSAW MOSUNNY 84 72 65 SW5 29.98S  
FORT WAYNE PTSUNNY 84 72 67 W8 29.99F  
MONTICELLO CLOUDY 87 75 67 SW10G16 29.97S HX 97  
LOGANSPORT MOSUNNY 86 75 70 SW12 29.98S HX 95  
PERU/GRISSOM MOSUNNY 87 75 67 SW13 29.97S HX 96  
HUNTINGTON MOSUNNY 82 73 72 SW5 29.99S  
MARION SUNNY 86 72 62 SW8 29.99F HX 92  
RICHMOND CLOUDY 81 77 89 SW9 30.05S  
MADISON MOSUNNY 91 70 49 SW8 30.07S HX 97  
HUNTINGBURG MOSUNNY 90 76 63 SW7 30.04F HX 101  
EVANSVILLE PTSUNNY 96 68 39 SW8 30.04F HX 101  

 
   
..ILLINOIS
 
 
 
CITY SKY/WX TMP DP RH WIND PRES REMARKS  
CHICAGO CLOUDY 86 73 65 W8 29.95S HX 93  
MOLINE MOSUNNY 93 77 59 NW6 29.94F HX 107  
ROCKFORD CLOUDY 85 75 72 NW8 29.98R HX 93  
KANKAKEE PTSUNNY 86 76 72 W13 29.97S HX 97  
PEORIA MOSUNNY 93 79 63 SW12 29.95F HX 110  
BLOOMINGTON MOSUNNY 93 77 59 SW21 29.98S HX 107  
RANTOUL CLOUDY 91 78 65 SW14G21 29.98S HX 105  
DANVILLE MOSUNNY 86 78 77 SW9 29.96F HX 97  
QUINCY SUNNY 97 75 49 SW15 29.98S HX 109  
SPRINGFIELD SUNNY 95 78 58 SW10 29.98F HX 111  
DECATUR MOSUNNY 93 73 52 SW17 29.99F HX 102  
MATTOON MOSUNNY 92 76 59 SW9G18 30.00F HX 104  
PARIS PTSUNNY 89 77 67 SW12 30.01F HX 102  
EFFINGHAM PTSUNNY 94 73 50 S9 30.04S HX 104  
ROBINSON CLOUDY 91 76 60 SW7 30.02F HX 102  
OLNEY PTSUNNY 92 75 57 S9 30.03S HX 103  
LAWRENCEVILLE MOSUNNY 94 76 55 S9 30.02F HX 106  
MOUNT VERNON PTSUNNY 96 76 52 SE8 30.04S HX 109  
FAIRFIELD MOSUNNY 93 76 57 SW6 30.03S HX 105  
MOUNT CARMEL CLOUDY 91 76 62 SW8 30.02F HX 103  
CARMI MOSUNNY 91 77 64 S7 30.03F HX 104  

 
   
..KENTUCKY
 
 
 
CITY SKY/WX TMP DP RH WIND PRES REMARKS  
LOUISVILLE CLOUDY 92 73 53 S8 30.04R HX 100  
PADUCAH CLOUDY 93 74 53 VRB6 30.05F HX 103  
OWENSBORO CLOUDY 93 72 50 SW8 30.05F HX 101  
FORT KNOX PTSUNNY 90 74 58 SW8 30.05S HX 99  
LEXINGTON CLOUDY 90 72 55 W7 30.08F HX 97  
BOWLING GREEN CLOUDY 92 72 51 CALM 30.08F HX 99  
JACKSON CLOUDY 89 71 55 CALM 30.12F HX 95  

 
   
..OHIO
 
 
 
CITY SKY/WX TMP DP RH WIND PRES REMARKS  
CINCINNATI CLOUDY 89 77 67 SW9G21 30.01F HX 101  
DAYTON CLOUDY 80 75 84 W10 30.04R  
TOLEDO CLOUDY 84 72 67 NW6 29.99R  
DEFIANCE CLOUDY N/A N/A N/A CALM 29.99F  
FINDLAY CLOUDY 86 70 58 W13 29.99S HX 90  
LIMA CLOUDY 82 70 66 W16G23 30.02R  
WRIGHT-PAT AFB PTSUNNY 79 76 88 W6 30.02R  
COLUMBUS CLOUDY 86 75 69 SW12 30.00F HX 95  
CLEVELAND PTSUNNY 88 69 53 NW13 30.01R HX 92  

 
   
..MICHIGAN
 
 
 
CITY SKY/WX TMP DP RH WIND PRES REMARKS  
DETROIT CLOUDY 83 68 60 SW10 29.99R  
GRAND RAPIDS PTSUNNY 83 70 64 W9 29.96F  
LANSING CLOUDY 82 68 62 W6 29.97F  
KALAMAZOO PTSUNNY 86 68 54 W14 29.97F  
BATTLE CREEK CLOUDY 84 71 65 W10 29.98F  
MARSHALL CLOUDY 85 71 63 W9 29.97F HX 91  
JACKSON PTSUNNY 83 69 62 VRB3 29.98F  
BENTON HARBOR SUNNY 81 68 64 NW6 29.98S  
STURGIS PTSUNNY 83 72 68 W5 29.98F  
COLDWATER CLOUDY 83 71 66 W8 29.99S  
HILLSDALE PTSUNNY 81 68 65 W6 30.00S  

 
   
..OTHER LOCATIONS
 
 
 
CITY SKY/WX TMP DP RH WIND PRES REMARKS  
SAINT LOUIS MO MOSUNNY 101 65 30 W16 30.02F HX 104  
CAPE GIRARDEAU MOSUNNY 93 73 52 S6 30.05S HX 102  
MILWAUKEE WI MOSUNNY 79 70 74 E8 29.96S  
NASHVILLE TN PTSUNNY 93 70 46 NW7 30.09F HX 99  

 
 
 
 
CLICK HERE TO GO TO PREVIOUS BULLETINS.

The Nexlab IN Page Main Text Page